This is the latest recevied weather packets stored in our database for station/object W5GMO. If no packets are shown the sender has not sent any weather packets the latest 10 day(s).
| Time | Temp. | Humidity | Pressure | Rain* | Wind** | Luminosity | Snow |
|---|---|---|---|---|---|---|---|
| 1788523178 | 23.89° C | 1% | 1014.8 hPa | 0 mm | - | 135 W/m² | - |
| 1788522874 | 23.33° C | 1% | 1014.8 hPa | 0 mm | - | 117 W/m² | - |
| 1788522574 | 23.33° C | 1% | 1014.8 hPa | 0 mm | - | 95 W/m² | - |
| 1788522268 | 23.33° C | 1% | 1015.1 hPa | 0 mm | - | 85 W/m² | - |
| 1788521964 | 23.33° C | 1% | 1014.8 hPa | 0 mm | - | 76 W/m² | - |
| 1788521663 | 23.33° C | 1% | 1014.8 hPa | 0 mm | - | 73 W/m² | - |
| 1788521362 | 23.33° C | 1% | 1014.8 hPa | 0 mm | - | 60 W/m² | - |
| 1788521058 | 23.33° C | 1% | 1014.8 hPa | 0 mm | - | 51 W/m² | - |
| 1788520771 | 22.78° C | 1% | 1014.7 hPa | 0 mm | - | 35 W/m² | - |
| 1788520449 | 22.78° C | 1% | 1014.8 hPa | 0 mm | - | 31 W/m² | - |
| 1788520145 | 22.78° C | 1% | 1014.5 hPa | 0 mm | - | 25 W/m² | - |
| 1788519844 | 22.22° C | 1% | 1014.8 hPa | 0 mm | - | 19 W/m² | - |
| 1788519539 | 22.22° C | 1% | 1014.6 hPa | 0 mm | - | 13 W/m² | - |
| 1788519234 | 22.22° C | 1% | 1014.9 hPa | 0 mm | - | 9 W/m² | - |
| 1788518929 | 22.22° C | 1% | 1014.6 hPa | 0 mm | - | 6 W/m² | - |
| 1788518623 | 22.22° C | 1% | 1014.6 hPa | 0 mm | - | 4 W/m² | - |
| 1788518320 | 22.22° C | 1% | 1014.6 hPa | 0 mm | - | 2 W/m² | - |
| 1788518015 | 22.22° C | 1% | 1014.6 hPa | 0 mm | - | 1 W/m² | - |
| 1788517711 | 22.22° C | 1% | 1014.3 hPa | 0 mm | - | 0 W/m² | - |
| 1788517407 | 22.22° C | 1% | 1014.3 hPa | 0 mm | - | 0 W/m² | - |
| 1788517102 | 22.22° C | 1% | 1014.4 hPa | 0 mm | - | 0 W/m² | - |
| 1788516799 | 22.22° C | 1% | 1014.4 hPa | 0 mm | - | 0 W/m² | - |
| 1788516494 | 22.22° C | 1% | 1014.5 hPa | 0 mm | - | 0 W/m² | - |
| 1788516190 | 22.22° C | 1% | 1014.6 hPa | 0 mm | - | 0 W/m² | - |
| 1788515890 | 22.22° C | 1% | 1014.3 hPa | 0 mm | - | 0 W/m² | - |
* Rain latest hour (hover to see other rain measurements)
** Current wind speed in m/s (hover to see current wind gust speed)